This is the latest recevied weather packets stored in our database for station/object WX5KDM. If no packets are shown the sender has not sent any weather packets the latest 10 day(s).
| Time | Temp. | Humidity | Pressure | Rain* | Wind** | Luminosity | Snow |
|---|---|---|---|---|---|---|---|
| 1777125423 | 20° C | 92% | 1010.2 hPa | 0 mm | - | - | - |
| 1777125119 | 19.44° C | 93% | 1010.1 hPa | 0 mm | - | - | - |
| 1777124815 | 18.89° C | 95% | 1010.4 hPa | 0 mm | - | - | - |
| 1777124510 | 18.89° C | 95% | 1010.1 hPa | 0 mm | - | - | - |
| 1777124207 | 18.89° C | 96% | 1010.2 hPa | 0 mm | - | - | - |
| 1777123904 | 18.33° C | 97% | 1010.2 hPa | 0 mm | - | - | - |
| 1777123600 | 18.33° C | 98% | 1009.9 hPa | 0 mm | - | - | - |
| 1777123296 | 18.33° C | 99% | 1010.1 hPa | 0 mm | - | - | - |
| 1777122992 | 18.33° C | 99% | 1010.4 hPa | 0 mm | - | - | - |
| 1777122689 | 17.78° C | 99% | 1010.6 hPa | 0 mm | - | - | - |
| 1777122384 | 18.33° C | 99% | 1010.6 hPa | 0 mm | - | - | - |
| 1777122081 | 17.78° C | 99% | 1010.6 hPa | 0 mm | - | - | - |
| 1777121777 | 17.78° C | 99% | 1010.4 hPa | 0 mm | - | - | - |
| 1777121475 | 17.78° C | 99% | 1010.5 hPa | 0 mm | - | - | - |
| 1777121174 | 17.78° C | 99% | 1010.3 hPa | 0 mm | - | - | - |
| 1777120872 | 17.78° C | 99% | 1010.5 hPa | 0 mm | - | - | - |
| 1777120568 | 17.78° C | 99% | 1010.5 hPa | 0 mm | - | - | - |
| 1777120264 | 17.78° C | 99% | 1010.5 hPa | 0 mm | - | - | - |
| 1777119959 | 17.78° C | 99% | 1010.6 hPa | 0 mm | - | - | - |
| 1777119656 | 17.78° C | 99% | 1010.5 hPa | 0 mm | - | - | - |
| 1777119351 | 17.78° C | 99% | 1010.6 hPa | 0 mm | - | - | - |
| 1777119046 | 17.78° C | 99% | 1010.5 hPa | 0 mm | - | - | - |
| 1777118742 | 17.22° C | 99% | 1010.4 hPa | 0 mm | - | - | - |
| 1777118438 | 17.22° C | 99% | 1010.3 hPa | 0 mm | - | - | - |
| 1777118134 | 17.22° C | 99% | 1010.4 hPa | 0 mm | - | - | - |
* Rain latest hour (hover to see other rain measurements)
** Current wind speed in m/s (hover to see current wind gust speed)